Wind_Speed
18 18 18 18 18 18 18 18 17 17 17 17 17 17 17 16 15 14 14 13 13 13 12 12 12 12 11 11 11 10 10 9 9 8 8 6 5 5 4 4 3 2 1
20 20 19 19 19 19 19 19 18 18 18 17 18 18 18 18 17 15 15 15 14 14 14 13 13 13 13 12 12 11 11 11 10 9 9 8 7 6 5 4 4 3 3
21 21 21 21 20 20 20 20 20 20 19 19 19 19 19 19 19 18 17 16 16 15 16 15 15 15 14 14 13 13 12 12 12 11 10 9 8 7 6 6 5 5 4
23 23 23 23 22 22 21 21 22 22 21 21 21 20 20 20 20 20 19 18 17 17 17 17 16 16 16 15 15 14 13 13 13 12 11 10 9 9 8 7 6 6 5
24 24 24 25 24 24 23 23 23 23 23 22 23 22 22 22 21 21 21 21 20 19 18 18 18 18 18 17 17 16 15 15 14 13 13 12 11 10 9 8 7 7 6
25 25 25 26 26 25 25 25 25 24 24 24 24 24 24 24 23 22 22 22 22 22 21 20 20 19 19 18 18 19 18 16 15 15 14 14 13 12 11 10 9 8 8
25 25 26 26 26 26 27 26 26 26 25 25 25 25 25 25 25 24 24 24 23 23 23 22 22 21 20 20 19 19 20 18 17 17 16 15 15 14 13 11 11 10 9
25 25 26 26 27 27 27 28 27 27 26 27 27 27 27 26 26 26 26 25 25 25 24 24 24 23 23 22 21 20 20 20 19 19 18 17 17 16 15 13 13 12 10
26 27 26 26 27 28 28 29 29 28 28 28 28 28 28 28 28 27 27 27 27 27 26 26 26 26 25 24 24 23 22 22 21 21 20 19 19 18 17 15 14 14 12
26 27 27 27 27 28 28 29 29 30 29 29 29 29 29 29 29 28 28 29 29 29 28 28 28 27 27 27 26 25 24 23 23 23 22 21 21 20 19 18 16 16 15
27 28 28 29 29 29 29 29 30 30 30 30 30 30 30 30 30 30 30 30 31 31 30 30 30 29 29 28 28 27 25 25 25 25 25 24 23 22 21 20 19 17 16
29 29 30 30 30 31 31 31 31 31 31 31 31 31 30 30 31 31 31 31 32 32 32 32 31 31 30 29 30 29 28 27 26 26 26 26 25 24 23 23 21 20 19
29 30 30 31 31 32 33 33 33 33 33 32 32 32 32 31 31 31 32 31 32 33 33 33 32 32 32 31 31 31 30 29 28 28 27 27 27 26 26 25 24 23 22
29 30 30 30 31 32 33 34 35 35 34 34 33 33 33 33 33 33 32 33 32 34 35 35 34 33 33 33 32 32 32 31 31 30 28 29 28 28 27 27 25 25 24
29 30 31 31 31 32 33 34 35 35 36 35 35 35 35 35 35 34 34 34 34 34 35 36 36 35 34 34 34 34 33 33 33 33 31 31 30 30 30 29 28 27 26
29 30 30 31 32 32 33 34 35 35 35 36 36 35 36 36 36 36 36 35 36 36 36 36 37 37 36 35 35 36 35 34 35 34 33 33 32 32 31 31 30 29 28
28 29 30 31 32 33 33 33 34 34 35 36 36 35 35 36 36 36 36 37 37 37 37 38 38 38 38 37 37 37 37 36 36 36 35 35 35 34 33 32 32 32 31
28 29 30 30 31 32 32 33 33 34 34 34 35 35 35 35 36 37 37 37 38 38 38 38 39 39 39 39 39 39 39 39 38 37 37 37 37 36 35 34 34 34 34
28 28 29 30 30 31 31 32 33 34 34 33 34 35 35 36 36 37 37 38 38 39 39 39 40 40 41 40 41 40 40 41 41 40 39 39 38 38 38 37 36 35 35
28 28 29 30 30 30 31 32 33 33 33 34 34 34 34 35 36 37 37 36 37 39 40 40 40 42 42 42 42 42 42 43 43 42 41 40 40 39 39 39 38 37 37
29 29 29 30 30 30 30 31 32 33 33 34 35 35 34 35 36 37 37 37 37 38 39 41 41 42 42 43 43 43 43 44 43 43 42 42 41 41 41 41 40 40 39
29 29 29 29 30 30 30 31 32 33 34 34 35 35 36 36 36 37 37 36 37 38 39 41 41 42 43 43 43 44 45 45 45 43 43 42 42 42 42 41 41 41 41
29 29 29 29 30 30 30 31 32 33 34 34 35 35 36 36 36 37 36 36 37 38 39 41 42 42 43 43 45 46 46 46 45 45 44 45 44 43 41 42 43 42 42
29 29 29 30 30 31 31 32 32 32 33 33 34 34 35 35 36 37 36 36 37 38 39 41 42 43 43 43 45 46 46 46 46 46 46 46 45 43 43 43 43 42 42
29 29 29 30 31 31 31 31 31 31 32 33 33 34 35 35 36 37 36 36 37 38 39 40 42 43 44 45 46 46 46 47 47 46 45 44 45 45 44 44 44 44 44
29 29 29 30 30 31 31 31 30 31 32 32 33 33 34 35 36 36 35 35 36 38 39 41 41 42 43 44 44 45 45 46 46 46 46 45 45 45 45 46 46 46 46
Wind_Direction
250 250 248 246 245 244 243 242 241 240 238 236 234 233 230 229 232 233 232 231 230 226 224 224 221 218 216 213 211 211 210 210 209 209 209 211 214 216 212 202 208 216 215
250 249 248 247 246 245 244 243 242 241 239 237 237 236 235 232 233 235 237 235 234 232 230 228 225 223 221 219 217 217 216 215 215 216 220 223 225 227 227 227 230 232 232
250 249 249 248 246 246 245 244 243 242 241 239 238 238 238 237 236 236 238 238 236 235 233 231 230 227 226 224 223 223 221 220 220 221 224 228 228 229 232 236 237 238 241
251 250 249 249 248 247 246 245 244 243 242 241 240 240 241 240 238 238 240 241 239 238 236 234 232 231 232 230 227 227 226 225 226 225 227 229 230 232 234 237 238 239 244
252 251 250 249 248 247 247 245 244 244 244 243 242 242 243 242 241 240 241 243 243 240 240 238 235 234 236 234 231 229 230 229 229 229 229 229 231 234 236 238 238 243 244
252 251 250 249 248 248 247 246 246 245 245 244 243 243 244 244 244 243 242 243 245 243 242 242 240 241 239 236 234 231 231 231 231 230 231 231 232 235 237 239 239 245 244
252 251 250 250 249 248 248 247 247 246 245 244 244 244 245 245 246 245 245 245 246 246 244 243 243 242 241 239 237 235 232 232 232 231 231 233 234 235 237 240 240 244 245
253 253 252 250 250 249 248 247 247 247 246 245 245 245 245 246 247 248 248 247 247 247 245 245 244 243 242 241 239 239 235 232 232 232 232 234 236 236 238 241 242 244 247
254 253 253 252 251 251 250 249 248 248 248 248 247 246 246 247 248 249 249 250 249 247 247 247 247 246 243 242 241 241 240 235 233 234 234 235 237 238 239 242 244 245 248
255 254 254 254 253 252 252 251 249 249 249 249 249 248 247 248 249 250 250 250 250 248 248 247 247 247 246 244 242 242 241 239 235 234 235 236 237 239 240 242 246 247 249
256 255 255 255 254 254 252 251 250 249 249 249 249 249 248 248 249 251 252 251 250 249 249 248 247 247 246 245 244 243 243 241 238 235 234 236 238 239 240 242 245 246 248
256 255 256 256 255 255 253 252 251 250 249 249 249 249 249 249 250 251 253 252 250 248 248 248 247 246 246 246 244 244 244 241 240 238 236 236 238 239 241 242 243 246 247
256 256 256 257 256 255 254 253 252 251 250 250 250 250 250 251 252 253 253 253 251 249 248 248 247 246 246 245 244 244 244 243 242 241 240 238 239 241 242 244 245 246 247
256 256 256 258 258 256 254 253 253 251 251 250 250 250 251 252 252 253 256 253 252 251 249 248 247 246 245 245 245 244 244 243 242 242 243 241 241 242 243 244 247 247 248
260 259 259 260 260 258 256 253 252 253 253 251 251 250 251 251 253 253 255 254 253 252 250 248 247 247 246 245 244 244 244 243 242 242 243 243 243 244 244 244 245 248 248
261 260 261 261 261 258 256 255 254 253 252 251 251 252 251 252 253 254 254 254 254 252 251 248 246 246 246 245 244 245 245 243 242 241 242 243 244 244 245 245 246 248 248
263 261 262 263 262 259 257 255 254 254 253 252 252 253 253 253 254 255 256 255 254 253 252 248 246 246 246 245 244 244 245 244 243 243 243 244 245 245 245 245 246 247 248
264 264 264 263 261 259 257 256 254 254 254 253 252 253 254 254 255 256 256 256 255 253 252 249 246 245 245 245 246 245 245 245 244 245 245 246 246 246 246 247 247 249 250
266 265 264 262 262 260 258 257 255 254 254 254 253 254 254 256 256 257 256 257 256 252 252 250 247 246 245 245 245 245 244 245 245 246 246 246 246 247 247 247 248 249 250
267 267 265 263 262 260 259 258 256 256 255 254 254 254 255 256 257 258 257 258 257 254 251 249 248 247 246 246 245 245 246 246 246 246 247 247 247 247 247 248 249 249 250
269 268 266 264 262 260 259 258 257 256 255 255 255 256 256 257 259 260 259 258 258 255 252 248 249 248 247 246 245 245 246 246 245 246 247 247 248 249 248 248 248 249 251
267 266 265 264 263 262 260 259 258 257 257 257 257 257 257 259 260 260 259 259 257 255 252 249 249 247 246 247 246 246 246 246 247 248 249 248 248 248 248 248 248 250 251
270 267 266 264 263 262 261 261 260 259 259 259 258 259 259 259 260 261 260 260 257 254 253 251 249 248 248 247 246 245 246 246 248 248 248 249 248 246 248 250 249 250 252
271 268 266 265 265 264 263 262 262 260 260 260 259 260 261 260 261 262 261 260 258 257 255 252 250 251 250 248 247 247 247 248 248 248 249 250 250 249 250 251 252 253 254
271 269 267 266 265 265 264 263 263 262 261 261 261 262 262 261 263 264 263 260 258 258 257 255 254 254 253 252 251 249 249 248 248 248 248 249 250 251 251 252 253 254 255
271 269 268 267 266 266 266 264 264 264 264 262 262 263 263 264 264 263 264 262 260 259 258 257 255 255 255 254 253 252 252 250 248 248 248 248 249 250 251 251 252 254 256
Height
5827 5827 5828 5830 5831 5832 5834 5835 5836 5837 5839 5840 5841 5842 5844 5845 5846 5847 5848 5850 5851 5852 5853 5854 5855 5856 5857 5858 5859 5860 5862 5863 5864 5865 5866 5867 5868 5868 5869 5869 5870 5870 5871
5823 5824 5825 5827 5828 5829 5831 5832 5833 5835 5836 5838 5839 5840 5841 5843 5844 5845 5846 5848 5849 5850 5851 5852 5853 5854 5855 5857 5858 5859 5860 5861 5863 5864 5865 5866 5867 5868 5868 5869 5869 5870 5870
5820 5821 5822 5823 5824 5826 5827 5829 5830 5832 5833 5835 5836 5838 5839 5840 5842 5843 5844 5845 5847 5848 5849 5850 5851 5852 5853 5855 5856 5857 5859 5860 5861 5862 5864 5865 5866 5867 5867 5868 5869 5869 5869
5816 5817 5818 5819 5821 5822 5824 5825 5827 5828 5830 5832 5833 5835 5836 5837 5839 5840 5841 5843 5844 5845 5847 5848 5849 5850 5851 5853 5854 5855 5857 5858 5860 5861 5862 5863 5864 5865 5866 5867 5867 5868 5868
5811 5812 5813 5815 5816 5818 5820 5821 5823 5824 5826 5828 5830 5831 5833 5834 5836 5837 5838 5840 5841 5842 5844 5845 5846 5847 5849 5850 5851 5853 5854 5856 5858 5859 5860 5862 5863 5864 5865 5866 5866 5867 5867
5806 5807 5809 5810 5812 5813 5815 5817 5818 5820 5822 5824 5825 5827 5829 5830 5832 5834 5835 5836 5838 5839 5840 5842 5843 5844 5845 5847 5848 5850 5852 5853 5855 5857 5858 5860 5861 5862 5863 5864 5865 5865 5866
5801 5802 5803 5805 5807 5808 5810 5812 5814 5816 5817 5819 5821 5823 5824 5826 5828 5830 5831 5833 5834 5836 5837 5838 5840 5841 5842 5843 5845 5847 5848 5850 5852 5854 5856 5857 5859 5860 5861 5862 5863 5864 5864
5796 5797 5798 5800 5801 5803 5805 5807 5809 5811 5813 5814 5816 5818 5820 5822 5824 5825 5827 5828 5830 5831 5833 5834 5836 5837 5838 5840 5841 5843 5845 5847 5849 5851 5853 5854 5856 5857 5859 5860 5861 5862 5862
5790 5792 5793 5794 5796 5798 5799 5801 5803 5805 5807 5809 5811 5813 5815 5817 5819 5821 5822 5824 5825 5827 5828 5830 5831 5833 5835 5836 5838 5839 5841 5843 5846 5848 5849 5851 5853 5855 5856 5857 5858 5859 5860
5784 5786 5787 5789 5791 5792 5794 5796 5798 5800 5801 5803 5806 5808 5810 5812 5814 5815 5817 5818 5820 5821 5823 5825 5826 5828 5830 5832 5834 5835 5837 5839 5842 5844 5846 5848 5849 5851 5853 5854 5855 5856 5857
5778 5780 5782 5783 5785 5786 5788 5790 5791 5793 5795 5797 5799 5802 5804 5806 5808 5810 5811 5812 5814 5816 5817 5819 5821 5823 5825 5827 5829 5831 5833 5835 5837 5839 5842 5844 5846 5847 5849 5850 5852 5853 5854
5772 5773 5775 5776 5778 5780 5781 5783 5785 5787 5789 5791 5793 5795 5798 5800 5802 5803 5804 5806 5807 5809 5811 5814 5816 5817 5820 5822 5824 5826 5828 5830 5833 5835 5837 5839 5841 5843 5845 5846 5848 5849 5850
5765 5767 5768 5769 5771 5772 5774 5776 5778 5780 5782 5784 5786 5789 5791 5793 5795 5796 5798 5799 5801 5802 5804 5807 5809 5811 5814 5816 5818 5820 5823 5825 5828 5830 5832 5834 5837 5839 5840 5842 5843 5845 5846
5757 5759 5761 5762 5763 5764 5766 5768 5770 5772 5774 5777 5779 5781 5784 5786 5788 5789 5791 5792 5794 5796 5798 5800 5803 5805 5807 5810 5812 5814 5817 5820 5822 5825 5827 5829 5832 5834 5835 5837 5839 5840 5842
5751 5752 5753 5755 5756 5757 5758 5760 5762 5764 5766 5768 5771 5773 5776 5778 5780 5782 5784 5785 5786 5788 5790 5793 5795 5798 5801 5803 5806 5808 5811 5814 5816 5819 5821 5824 5826 5828 5830 5831 5833 5835 5836
5744 5745 5746 5747 5748 5749 5750 5752 5753 5755 5757 5760 5762 5765 5767 5770 5772 5774 5775 5777 5779 5781 5783 5785 5788 5791 5794 5796 5799 5801 5804 5807 5810 5813 5815 5818 5820 5822 5823 5825 5827 5829 5831
5737 5738 5739 5739 5740 5740 5742 5743 5745 5747 5749 5751 5754 5756 5759 5761 5763 5765 5767 5769 5771 5772 5775 5777 5779 5783 5786 5789 5792 5794 5797 5800 5803 5806 5808 5811 5813 5815 5817 5819 5821 5823 5824
5730 5731 5731 5732 5732 5732 5733 5735 5736 5738 5740 5743 5745 5748 5750 5753 5755 5756 5758 5760 5762 5763 5766 5768 5771 5775 5778 5781 5784 5787 5790 5793 5796 5798 5801 5803 5806 5808 5810 5812 5814 5816 5818
5723 5723 5724 5724 5724 5725 5725 5726 5728 5730 5732 5735 5737 5740 5742 5744 5746 5748 5749 5751 5753 5754 5756 5759 5763 5766 5769 5772 5775 5779 5782 5785 5787 5790 5793 5796 5798 5800 5803 5805 5807 5809 5811
5716 5716 5716 5717 5717 5717 5718 5719 5720 5722 5725 5727 5730 5732 5734 5736 5738 5739 5741 5742 5743 5745 5747 5750 5754 5757 5760 5764 5767 5770 5773 5776 5779 5782 5784 5787 5790 5792 5794 5797 5799 5801 5803
5709 5709 5709 5709 5709 5710 5710 5711 5713 5715 5717 5720 5722 5724 5726 5728 5729 5731 5732 5733 5734 5736 5738 5741 5744 5748 5751 5754 5758 5761 5764 5767 5770 5773 5775 5778 5781 5783 5786 5788 5790 5793 5795
5701 5701 5701 5701 5702 5702 5703 5704 5706 5707 5709 5712 5714 5716 5718 5719 5721 5722 5723 5724 5725 5727 5729 5732 5734 5737 5741 5744 5748 5751 5754 5758 5760 5763 5766 5769 5772 5774 5777 5779 5781 5784 5786
5694 5694 5693 5693 5694 5695 5695 5696 5698 5700 5702 5704 5706 5707 5709 5710 5712 5713 5714 5715 5717 5718 5720 5723 5725 5728 5731 5734 5737 5740 5744 5748 5751 5754 5756 5759 5762 5765 5767 5770 5772 5775 5777
5686 5686 5686 5686 5687 5687 5688 5689 5690 5692 5694 5696 5697 5698 5700 5702 5703 5704 5705 5706 5708 5709 5711 5713 5715 5718 5720 5723 5726 5729 5733 5736 5740 5743 5746 5749 5751 5754 5757 5760 5763 5765 5767
5679 5679 5679 5679 5680 5680 5681 5682 5683 5684 5686 5687 5688 5690 5692 5693 5694 5694 5696 5697 5698 5700 5701 5704 5706 5708 5710 5713 5716 5718 5721 5725 5728 5732 5735 5739 5741 5744 5747 5750 5752 5755 5757
5671 5671 5672 5672 5672 5673 5673 5674 5675 5676 5677 5679 5680 5681 5683 5684 5684 5685 5686 5688 5689 5690 5692 5693 5695 5698 5700 5702 5704 5707 5710 5713 5717 5720 5724 5727 5730 5733 5736 5739 5742 5744 5746